GW0502 Weather Reports


time (UTC)temp
C
wind
direction
speed
KPH
gust
KPH
rain 1hr
cm
rain 24hr
cm
rain mn
cm
humidity
%
barometer
mb
20260507115216 9 326 1.6 3.2 0.00 0.30 0.30 91 1006.6
20260507114711 8 350 3.2 3.2 0.00 0.30 0.30 90 1006.4
20260507114209 8 16 1.6 3.2 0.00 0.30 0.30 91 1006.5
20260507113706 8 30 3.2 3.2 0.00 0.30 0.30 94 1006.5
20260507113203 8 344 4.8 4.8 0.00 0.30 0.30 94 1006.3
20260507112701 8 210 4.8 4.8 0.00 0.30 0.30 95 1006.8
20260507112157 8 182 3.2 3.2 0.00 0.30 0.30 97 1006.7
20260507111655 8 244 3.2 4.8 0.00 0.30 0.30 99 1006.9
20260507111152 7 215 3.2 3.2 0.00 0.30 0.30 99 1006.7
20260507110647 7 189 3.2 4.8 0.00 0.30 0.30 99 1006.6
20260507110144 7 293 3.2 3.2 0.00 0.30 0.30 99 1006.9
20260507105641 7 352 0.0 0.0 0.00 0.30 0.30 99 1006.3
20260507105137 7 17 0.0 0.0 0.00 0.30 0.30 99 1006.4
20260507104634 7 9 0.0 0.0 0.00 0.30 0.30 99 1006.4
20260507104131 7 305 3.2 4.8 0.00 0.30 0.30 99 1006.5
20260507103627 7 341 1.6 1.6 0.00 0.30 0.30 99 1006.6
20260507103124 7 340 4.8 4.8 0.00 0.30 0.30 99 1006.3
20260507102620 6 9 0.0 1.6 0.00 0.30 0.30 99 1006.0
20260507102116 7 1 3.2 3.2 0.00 0.30 0.30 99 1005.8
20260507101613 6 17 0.0 0.0 0.00 0.30 0.30 99 1006.0
20260507101109 6 11 1.6 1.6 0.00 0.30 0.30 99 1006.2
20260507100606 6 2 3.2 3.2 0.00 0.30 0.30 99 1005.9
20260507100104 6 15 4.8 4.8 0.00 0.30 0.30 99 1005.9
20260507095602 6 19 1.6 3.2 0.00 0.30 0.30 99 1005.8
20260507095058 6 22 1.6 1.6 0.00 0.30 0.30 99 1005.9
20260507094554 6 49 3.2 3.2 0.00 0.30 0.30 99 1005.9
20260507094051 6 3 0.0 1.6 0.00 0.30 0.30 99 1006.0
20260507093549 6 359 1.6 1.6 0.00 0.30 0.30 99 1006.0
20260507093047 6 331 4.8 4.8 0.00 0.30 0.30 99 1005.7
20260507092543 6 11 3.2 3.2 0.00 0.30 0.30 99 1005.5
20260507092040 7 14 1.6 3.2 0.00 0.30 0.30 99 1006.0
20260507091537 7 22 0.0 0.0 0.00 0.30 0.30 99 1005.8
20260507091033 7 325 3.2 3.2 0.00 0.30 0.30 99 1006.0
20260507090529 7 15 0.0 0.0 0.00 0.30 0.30 99 1005.9
20260507090026 7 5 3.2 4.8 0.00 0.30 0.30 99 1006.4
20260507085523 7 333 3.2 3.2 0.00 0.30 0.30 99 1006.1
20260507085020 7 11 0.0 1.6 0.00 0.30 0.30 99 1005.6
20260507084516 7 12 1.6 1.6 0.00 0.30 0.30 99 1005.5
20260507084014 7 10 1.6 3.2 0.00 0.30 0.30 99 1005.7
20260507083510 7 10 3.2 3.2 0.00 0.30 0.30 99 1005.6
20260507083007 7 14 1.6 3.2 0.00 0.30 0.30 99 1005.6
20260507082503 7 19 1.6 1.6 0.00 0.30 0.30 99 1005.3
20260507081959 7 17 4.8 4.8 0.00 0.30 0.30 99 1005.4
20260507081455 7 359 1.6 1.6 0.00 0.30 0.30 99 1005.6
20260507080953 7 14 6.4 8.0 0.00 0.30 0.30 99 1005.3
20260507080448 7 242 3.2 4.8 0.00 0.30 0.30 99 1005.6
20260507075944 7 353 4.8 4.8 0.00 0.30 0.30 99 1005.4
20260507075440 7 356 1.6 1.6 0.00 0.30 0.30 99 1005.5
20260507074937 7 18 1.6 1.6 0.00 0.30 0.30 99 1005.5
20260507074433 7 23 4.8 4.8 0.00 0.30 0.30 99 1005.5
20260507073931 7 353 6.4 9.7 0.00 0.30 0.30 99 1005.7
20260507073422 7 40 4.8 4.8 0.00 0.30 0.30 99 1005.5
20260507072919 7 29 4.8 8.0 0.00 0.30 0.30 99 1005.5
20260507072417 7 35 1.6 1.6 0.00 0.30 0.30 99 1005.5
20260507071914 7 16 0.0 0.0 0.00 0.30 0.30 99 1005.3
20260507071411 7 18 0.0 1.6 0.00 0.30 0.30 99 1005.0
20260507070907 7 307 4.8 4.8 0.00 0.30 0.30 99 1005.2
20260507070405 7 22 3.2 3.2 0.00 0.30 0.30 99 1004.9
20260507065901 8 30 0.0 1.6 0.00 0.30 0.30 99 1005.1
20260507065358 8 50 4.8 4.8 0.00 0.30 0.30 99 1005.0
20260507064855 8 6 1.6 3.2 0.00 0.30 0.30 99 1005.2
20260507064353 8 353 4.8 4.8 0.00 0.30 0.30 99 1004.9
20260507063851 8 5 3.2 3.2 0.00 0.30 0.30 99 1005.1
20260507063348 8 291 6.4 9.7 0.13 0.30 0.30 99 1004.7
20260507062845 8 11 8.0 11.3 0.13 0.30 0.30 99 1004.8
20260507062341 8 356 8.0 9.7 0.00 0.28 0.28 99 1004.3
20260507061839 8 6 1.6 3.2 0.00 0.28 0.28 99 1004.7
20260507061337 8 34 3.2 3.2 0.00 0.28 0.28 99 1004.6
20260507060835 8 31 9.7 11.3 0.00 0.28 0.28 99 1004.8
20260507060332 8 26 6.4 9.7 0.00 0.28 0.28 99 1004.4
20260507055828 8 69 4.8 8.0 0.00 0.28 0.28 99 1004.6
20260507055323 8 28 6.4 8.0 0.00 0.28 0.28 99 1004.1
20260507054821 8 68 8.0 14.5 0.00 0.28 0.28 99 1004.7
20260507054316 8 48 4.8 8.0 0.18 0.28 0.28 99 1004.7
20260507053814 8 340 4.8 4.8 0.36 0.28 0.28 99 1004.8
20260507053312 8 352 9.7 11.3 0.30 0.25 0.25 99 1004.8
20260507052811 8 349 4.8 8.0 0.71 0.23 0.23 99 1005.0
20260507052307 8 47 4.8 4.8 0.79 0.20 0.20 99 1005.1
20260507051805 8 243 11.3 16.1 0.30 0.13 0.13 99 1005.9
20260507051302 9 318 9.7 11.3 0.13 0.08 0.08 99 1005.1
20260507050758 10 35 6.4 8.0 0.13 0.08 0.08 99 1004.6
20260507050255 10 14 9.7 12.9 0.00 0.05 0.05 99 1004.1
20260507045751 10 33 0.0 1.6 0.00 0.05 0.05 99 1003.9
20260507045248 10 33 11.3 12.9 0.18 0.05 0.05 99 1004.0
20260507044745 11 339 9.7 14.5 0.00 0.03 0.03 99 1004.1
20260507044242 11 314 20.9 24.1 0.00 0.03 0.03 99 1004.0
20260507043738 11 6 4.8 4.8 0.00 0.03 0.03 99 1003.9
20260507043235 11 265 6.4 8.0 0.00 0.03 0.03 99 1003.9
20260507042731 11 306 4.8 8.0 0.00 0.03 0.03 99 1003.8
20260507042226 11 273 4.8 8.0 0.00 0.03 0.03 99 1003.8
20260507041724 11 266 4.8 4.8 0.13 0.03 0.03 99 1003.8
20260507041220 11 310 3.2 3.2 0.13 0.03 0.03 99 1003.8
20260507040718 11 248 6.4 8.0 0.00 0.00 0.00 99 1003.7
20260507040213 11 273 4.8 4.8 0.18 0.00 0.00 99 1003.9
20260507035709 11 245 8.0 11.3 0.18 1.24 1.24 99 1004.0
20260507035205 10 253 9.7 11.3 0.00 1.22 1.22 99 1004.0
20260507034702 10 273 8.0 9.7 0.00 1.22 1.22 99 1003.7
20260507034200 10 225 6.4 8.0 0.00 1.22 1.22 99 1003.7
20260507033658 10 224 9.7 11.3 0.00 1.22 1.22 99 1003.8
20260507033155 10 246 6.4 8.0 0.00 1.22 1.22 99 1003.9
20260507032652 10 276 6.4 8.0 0.00 1.22 1.22 99 1003.8
20260507032148 10 275 8.0 9.7 0.00 1.22 1.22 99 1003.6
20260507031645 10 244 11.3 14.5 0.18 1.22 1.22 99 1003.7
20260507031141 11 234 9.7 12.9 0.18 1.22 1.22 99 1003.9
20260507030638 11 212 11.3 14.5 0.00 1.19 1.19 99 1003.8
20260507030136 11 233 8.0 9.7 0.00 1.19 1.19 99 1003.8
20260507025633 11 247 12.9 16.1 0.00 1.19 1.19 99 1003.9
20260507025130 11 262 11.3 14.5 0.00 1.19 1.19 99 1004.0
20260507024628 11 254 17.7 22.5 0.00 1.19 1.19 99 1004.0
20260507024125 11 259 12.9 14.5 0.00 1.19 1.19 99 1004.2
20260507023620 11 242 16.1 20.9 0.00 1.19 1.19 99 1004.4
20260507023118 11 233 20.9 29.0 0.00 1.19 1.19 99 1004.6
20260507022615 11 245 14.5 22.5 0.00 1.19 1.19 99 1004.8
20260507022110 11 255 17.7 24.1 0.00 1.19 1.19 99 1004.6
20260507021607 11 239 12.9 14.5 0.00 1.19 1.19 99 1004.8
20260507021103 11 251 25.7 35.4 0.00 1.19 1.19 99 1004.7
20260507020602 11 237 16.1 22.5 0.00 1.19 1.19 99 1004.9
20260507020057 11 254 17.7 22.5 0.13 1.19 1.19 99 1004.7
20260507015555 11 240 17.7 24.1 0.13 1.19 1.19 99 1005.0
20260507015047 12 243 16.1 20.9 0.00 1.17 1.17 99 1004.9
20260507014543 12 209 12.9 16.1 0.18 1.17 1.17 99 1005.0
20260507014033 12 236 17.7 20.9 0.18 1.17 1.17 99 1005.0
20260507013530 12 243 9.7 11.3 0.00 1.14 1.14 99 1005.3
20260507013027 12 249 9.7 11.3 0.13 1.14 1.14 99 1005.2
20260507012524 12 207 9.7 12.9 0.13 1.14 1.14 99 1005.3
20260507012020 12 233 9.7 11.3 0.13 1.14 1.14 99 1005.4
20260507011518 12 246 8.0 11.3 0.00 1.12 1.12 99 1005.4
20260507011014 12 270 6.4 9.7 0.00 1.12 1.12 99 1005.4
20260507010508 12 269 16.1 20.9 0.00 1.12 1.12 99 1005.6
20260507010005 12 230 9.7 12.9 0.00 1.12 1.12 99 1005.8
20260507005503 12 251 9.7 9.7 0.00 1.12 1.12 99 1005.9
20260507004959 12 245 17.7 22.5 0.00 1.12 1.12 99 1005.8
20260507004456 12 203 14.5 16.1 0.00 1.12 1.12 99 1005.6
20260507003954 12 229 12.9 17.7 0.00 1.12 1.12 99 1005.8
20260507003448 12 232 14.5 20.9 0.00 1.12 1.12 99 1005.6
20260507002944 12 231 14.5 17.7 0.00 1.12 1.12 99 1006.0
20260507002440 12 236 20.9 25.7 0.00 1.12 1.12 99 1006.2
20260507001937 12 231 22.5 24.1 0.00 1.12 1.12 99 1006.1
20260507001434 12 221 20.9 22.5 0.00 1.12 1.12 99 1006.2
20260507000932 12 249 14.5 22.5 0.00 1.12 1.12 99 1006.2
20260507000427 12 256 19.3 24.1 0.00 1.12 1.12 99 1006.2
20260506235923 12 206 12.9 16.1 0.00 1.12 1.12 99 1006.1
20260506235420 12 222 12.9 14.5 0.18 1.12 1.12 99 1006.2
20260506234910 12 226 14.5 16.1 0.18 1.12 1.12 99 1006.2
20260506234408 12 257 16.1 17.7 0.00 1.09 1.09 99 1006.2
20260506233906 12 234 20.9 25.7 0.00 1.09 1.09 99 1006.5
20260506233401 12 239 14.5 17.7 0.13 1.09 1.09 99 1006.3
20260506232858 12 236 17.7 20.9 0.30 1.09 1.09 99 1006.4
20260506232354 12 252 17.7 22.5 0.18 1.07 1.07 99 1006.6
20260506231850 12 246 12.9 16.1 0.00 1.04 1.04 99 1006.4
20260506231348 12 222 20.9 24.1 0.00 1.04 1.04 99 1006.4
20260506230846 12 242 20.9 27.4 0.00 1.04 1.04 99 1006.4
20260506230342 12 238 16.1 17.7 0.00 1.04 1.04 99 1006.4
20260506225838 12 261 17.7 20.9 0.13 1.04 1.04 99 1006.5
20260506225336 12 235 24.1 29.0 0.30 1.04 1.04 99 1006.4
20260506224833 12 242 20.9 29.0 0.30 1.02 1.02 99 1006.5
20260506224330 12 230 20.9 24.1 0.30 0.99 0.99 99 1006.7
20260506223826 12 210 16.1 17.7 0.48 0.97 0.97 99 1006.9
20260506223321 12 251 11.3 20.9 0.61 0.94 0.94 99 1006.7
20260506222819 12 255 11.3 12.9 0.79 0.91 0.91 99 1006.6
20260506222314 12 195 22.5 29.0 0.61 0.86 0.86 99 1006.8
20260506221813 12 206 22.5 29.0 0.61 0.79 0.79 99 1006.9
20260506221310 12 241 22.5 25.7 0.48 0.74 0.74 99 1006.7
20260506220807 12 247 27.4 32.2 0.43 0.71 0.71 99 1006.8
20260506220302 12 222 24.1 32.2 0.43 0.66 0.66 99 1006.9
20260506215759 12 250 11.3 11.3 0.48 0.64 0.64 99 1007.1
20260506215255 12 218 8.0 8.0 0.48 0.58 0.58 99 1007.0
20260506214751 12 271 11.3 12.9 0.48 0.56 0.56 99 1007.2
20260506214248 12 240 9.7 11.3 0.48 0.51 0.51 99 1007.5
20260506213747 12 257 12.9 16.1 0.30 0.48 0.48 99 1007.5
20260506213243 12 243 8.0 11.3 0.18 0.46 0.46 99 1007.4
20260506212740 12 225 11.3 12.9 0.13 0.43 0.43 99 1007.2
20260506212236 12 231 12.9 14.5 0.30 0.43 0.43 99 1007.4
20260506211731 12 263 14.5 16.1 0.48 0.41 0.41 99 1007.5
20260506211228 12 231 12.9 17.7 0.43 0.38 0.38 99 1007.5
20260506210725 12 215 12.9 14.5 0.30 0.33 0.33 99 1007.5
20260506210222 12 213 22.5 25.7 0.48 0.30 0.30 99 1007.7
20260506205719 12 243 16.1 20.9 0.48 0.28 0.28 99 1007.6
20260506205214 12 255 17.7 24.1 0.36 0.25 0.25 99 1007.9
20260506204712 12 230 14.5 14.5 0.13 0.20 0.20 99 1007.9
20260506204209 12 242 12.9 20.9 0.30 0.20 0.20 99 1007.7
20260506203707 12 235 11.3 12.9 0.30 0.18 0.18 99 1007.6
20260506203204 12 216 8.0 9.7 0.30 0.15 0.15 99 1007.7
20260506202702 12 237 17.7 20.9 0.48 0.13 0.13 99 1007.7
20260506202157 12 257 11.3 16.1 0.43 0.10 0.10 99 1007.7
20260506201654 12 228 16.1 20.9 0.30 0.08 0.08 99 1007.7
20260506201150 12 227 17.7 20.9 0.18 0.03 0.03 99 1007.8
20260506200648 12 227 20.9 22.5 0.18 0.03 0.03 98 1007.7
20260506200144 13 206 17.7 22.5 0.00 0.00 0.00 97 1007.3
20260506195641 13 222 12.9 14.5 0.00 0.00 0.00 96 1007.9
20260506195137 13 246 14.5 16.1 0.00 0.00 0.00 95 1007.7
20260506194635 13 195 19.3 25.7 0.00 0.00 0.00 94 1007.9
20260506194131 13 235 22.5 24.1 0.00 0.00 0.00 93 1007.8
20260506193629 13 250 17.7 22.5 0.00 0.00 0.00 93 1007.8
20260506193126 13 227 14.5 24.1 0.00 0.00 0.00 93 1007.6
20260506192622 14 238 16.1 20.9 0.00 0.00 0.00 92 1008.1
20260506192118 14 226 14.5 16.1 0.00 0.00 0.00 91 1008.0
20260506191615 14 261 14.5 16.1 0.00 0.00 0.00 91 1008.0
20260506191111 15 229 17.7 25.7 0.00 0.00 0.00 89 1008.0
20260506190609 15 245 22.5 27.4 0.00 0.00 0.00 88 1008.0
20260506190106 15 226 25.7 32.2 0.00 0.00 0.00 87 1008.2
20260506185603 15 201 24.1 32.2 0.00 0.00 0.00 87 1007.8
20260506185059 15 271 22.5 27.4 0.00 0.00 0.00 86 1007.6
20260506184556 15 223 16.1 20.9 0.00 0.00 0.00 86 1007.6
20260506184054 16 220 22.5 29.0 0.00 0.00 0.00 85 1007.7
20260506183549 15 239 11.3 14.5 0.00 0.00 0.00 86 1007.7
20260506183046 15 230 12.9 17.7 0.00 0.00 0.00 87 1008.0
20260506182544 15 211 24.1 25.7 0.00 0.00 0.00 88 1008.0
20260506182041 15 213 14.5 20.9 0.00 0.00 0.00 88 1008.3
20260506181539 15 248 17.7 24.1 0.00 0.00 0.00 88 1008.3
20260506181035 15 229 17.7 24.1 0.00 0.00 0.00 87 1008.1
20260506180532 15 247 20.9 22.5 0.00 0.00 0.00 88 1008.3
20260506180029 15 214 9.7 16.1 0.00 0.00 0.00 89 1008.3
20260506175525 15 213 14.5 16.1 0.00 0.00 0.00 88 1008.3
20260506175021 15 193 14.5 16.1 0.00 0.00 0.00 88 1008.5
20260506174520 15 219 17.7 20.9 0.00 0.00 0.00 87 1008.2
20260506174016 15 235 14.5 16.1 0.00 0.00 0.00 88 1008.6
20260506173514 15 217 8.0 9.7 0.00 0.00 0.00 88 1008.7
20260506173010 15 215 12.9 12.9 0.00 0.00 0.00 88 1008.7
20260506172508 15 247 11.3 12.9 0.00 0.00 0.00 88 1008.8
20260506172004 15 229 14.5 14.5 0.00 0.00 0.00 88 1008.7
20260506171501 15 220 17.7 24.1 0.00 0.00 0.00 89 1009.0
20260506170959 15 214 19.3 22.5 0.00 0.00 0.00 88 1008.9
20260506170455 15 209 24.1 32.2 0.00 0.00 0.00 88 1009.2
20260506165948 15 225 14.5 17.7 0.00 0.00 0.00 89 1009.0
20260506165447 15 259 14.5 17.7 0.00 0.00 0.00 88 1009.1
20260506164942 15 205 20.9 25.7 0.00 0.00 0.00 88 1009.0
20260506164439 15 235 14.5 17.7 0.00 0.00 0.00 89 1009.4
20260506163937 15 208 16.1 17.7 0.00 0.00 0.00 88 1009.3
20260506163431 15 241 8.0 11.3 0.00 0.00 0.00 89 1009.2
20260506162926 15 259 11.3 14.5 0.00 0.00 0.00 89 1009.4
20260506162424 15 233 16.1 17.7 0.00 0.00 0.00 89 1009.6
20260506161921 15 241 16.1 20.9 0.00 0.00 0.00 89 1009.6
20260506161420 15 243 19.3 24.1 0.00 0.00 0.00 89 1009.7
20260506160911 15 240 11.3 11.3 0.00 0.00 0.00 88 1009.5
20260506160408 15 243 12.9 16.1 0.00 0.00 0.00 88 1009.8
20260506155906 15 212 14.5 17.7 0.00 0.00 0.00 89 1009.7
20260506155403 15 221 16.1 17.7 0.00 0.00 0.00 88 1009.9
20260506153525 16 203 19.3 20.9 0.00 0.00 0.00 86 1009.6
20260506153023 16 213 12.9 12.9 0.00 0.00 0.00 86 1009.6
20260506152519 16 234 12.9 14.5 0.00 0.00 0.00 86 1009.5
20260506152018 16 210 9.7 12.9 0.00 0.00 0.00 86 1009.3
20260506151515 16 254 11.3 16.1 0.00 0.00 0.00 86 1009.2
20260506151012 16 237 16.1 17.7 0.00 0.00 0.00 87 1009.2
20260506150508 16 215 20.9 24.1 0.00 0.00 0.00 86 1009.0
20260506150005 16 215 16.1 17.7 0.00 0.00 0.00 86 1009.3
20260506145502 15 194 11.3 14.5 0.00 0.00 0.00 87 1009.3
20260506144959 15 215 25.7 29.0 0.00 0.00 0.00 86 1009.6
20260506144456 15 222 12.9 14.5 0.00 0.00 0.00 87 1009.6
20260506143954 15 250 14.5 16.1 0.00 0.00 0.00 87 1009.6
20260506143451 15 245 11.3 12.9 0.00 0.00 0.00 88 1009.7
20260506142949 15 198 14.5 17.7 0.00 0.00 0.00 87 1010.0
20260506142447 15 229 9.7 11.3 0.00 0.00 0.00 87 1010.0
20260506141944 16 231 9.7 14.5 0.00 0.00 0.00 86 1010.2
20260506141442 16 195 14.5 16.1 0.00 0.00 0.00 86 1010.2
20260506140941 15 235 11.3 12.9 0.00 0.00 0.00 85 1010.3
20260506140437 15 223 6.4 8.0 0.00 0.00 0.00 85 1010.3
20260506135934 15 251 1.6 3.2 0.00 0.00 0.00 85 1010.1
20260506135431 15 92 3.2 4.8 0.00 0.00 0.00 85 1009.9
20260506134927 15 47 1.6 1.6 0.00 0.00 0.00 85 1009.9
20260506134423 15 74 4.8 4.8 0.00 0.00 0.00 84 1009.9
20260506133920 16 137 4.8 4.8 0.00 0.00 0.00 84 1010.0
20260506133417 16 185 6.4 8.0 0.00 0.00 0.00 85 1009.7
20260506132914 15 241 6.4 8.0 0.00 0.00 0.00 86 1010.1
20260506132411 15 207 8.0 9.7 0.00 0.00 0.00 86 1009.9
20260506131909 15 206 11.3 12.9 0.00 0.00 0.00 86 1009.7
20260506131405 15 223 4.8 4.8 0.00 0.00 0.00 86 1010.0
20260506130902 15 209 4.8 4.8 0.00 0.00 0.00 86 1010.0
20260506130358 15 215 8.0 9.7 0.00 0.00 0.00 88 1009.9
20260506125857 15 192 8.0 11.3 0.00 0.00 0.00 88 1010.3
20260506125355 14 251 6.4 8.0 0.00 0.00 0.00 88 1010.3
20260506124853 14 200 8.0 9.7 0.00 0.00 0.00 88 1010.1
20260506124349 13 233 4.8 4.8 0.00 0.00 0.00 89 1010.2
20260506123847 13 242 3.2 3.2 0.00 0.00 0.00 90 1010.3
20260506123345 13 228 8.0 11.3 0.00 0.00 0.00 90 1010.1
20260506122842 13 217 4.8 8.0 0.00 0.00 0.00 90 1009.9
20260506122339 13 223 11.3 12.9 0.00 0.00 0.00 89 1010.3
20260506121837 13 206 4.8 8.0 0.00 0.00 0.00 90 1010.4
20260506121334 13 215 4.8 4.8 0.00 0.00 0.00 89 1010.8
20260506120831 13 196 4.8 4.8 0.00 0.00 0.00 91 1011.1
20260506120329 13 224 4.8 4.8 0.00 0.00 0.00 90 1011.0
20260506115826 12 252 3.2 3.2 0.00 0.00 0.00 91 1010.7